Showing default

LAPAN A3, 41603

Orbit data source: Space-Track

LAPAN A3, 41603 is a payload satellite owned by LAPAN (ID) in SSO that was launched on Wed, 22 Jun 2016 UTC via a PSLV-XL launch vehicle from the Sirharikota (SRI). Payload-class satellites include a variety of spacecraft equipped with specific instruments for various scientific and technological missions. These include communications satellites like Starlink; space stations such as the ISS; scientific satellites like the Hubble; Earth observation satellites from companies like Planet Labs, Umbra, and HawkEye 360; GPS; miniature CubeSats for education and research; and military/defense satellites.

Loading next visibility...
Identifier
41603, 2016-040E
Orbit
SSO
Last TLE update
10 hours ago
Origin
Manufacturer
LAPAN
Mission
Operational Civil Imaging
Bus & Motor
TUBSAT, Unknown motor
Mass
120 kg wet, 120 kg dry
Launch date (UTC)
2016-06-22 (9 years ago)
Launch vehicle
PSLV-XL
Launch site
Sirharikota (SRI)
Object type
Payload
Rocket body
Debris
Shape & HBR
Box, 0.5 m
Radar Cross Section
0.225 m², Medium (>0.1 m² and < 1m²)

Expand to show TLE details & history

TLE from 10 hours ago
0 LAPAN A3
1 41603U 16040E   25182.08427708  .00002317  00000-0  82200-4 0  9998
2 41603  97.1369 185.8494 0010789 182.7709 177.3474 15.29980773501076
Epoch: 2025-07-01T02:01Z
TLE epoch observation values (Epoch: 2025-07-01T02:01:21.539Z)
Latitude
-0.00007°
Longitude
-123.87515°
Altitude
486.37 km
Speed
7.618 km/s
True Right ascension
12h 23m 23s
True Declination
0° 00' 00"
Sunlit
Object was in daylight at epoch
Visualization orbit readout
Latitude
-46.05054°
Longitude
49.11956°
Altitude
488.504 km
Speed
7.622 km/s
Apparent Right ascension
15h 45m 48s
Apparent Declination
-88° 33' 13"
Sunlit
Object is in full shadow
Visualization observer readout
Local Sidereal Time
00:04:20
Azimuth
181.57° SSW
Elevation
-40.728°
Doppler factor
1
Orbital elements
Apogee altitude
480.202 km
Perigee altitude
465.419 km
Semi-major axis
6,850.948 km
Eccentricity
0.00108
Inclination
97.1369°
RAAN
185.8494°
Arg. of periapsis
182.7709°
True anomaly
Unknown
Mean anomaly
177.3474°
Eccentric anomaly
Unknown
Mean motion
3.82752 °/min
Orbital period
94.06 mins
BSTAR
0.0000822
Loading maneuver chart data...
Loading SW <> Apogee altitude chart data...
Loading historical data...
Loading historical data...
Loading historical data...
Loading historical data...
Loading historical data...
Loading historical data...
Loading historical data...

LAPAN A3 Visibility forecast

Observer location: undefined°, undefined°

Span
Click to sort rows by Start time (UTC) header in descending order
Start Az.
Max El. time (UTC)
Max El. Az.
Max El.
End time (UTC)
End Az.
5 mins2025-07-01 13:34:34.319Z346.526° N2025-07-01 13:36:34.319Z297.706° NW30.546°2025-07-01 13:39:34.319Z221.682° SW
5 mins2025-07-02 00:08:34.319Z149.556° SSE2025-07-02 00:10:34.319Z72.78° E41.16°2025-07-02 00:13:34.319Z357.083° N
|